Regional Weather Roundup
Issued by NWS

Home | Current Version | Previous Version | Text Only | Print | Product List | Glossary Off
Versions: 1 2 3 4 5 6 7 8 9 10 11 12 13 14 15 16 17 18 19 20 21 22 23 24 25 26 27 28 29 30 31 32 33 34 35 36 37 38 39 40 41 42 43 44 45 46 47 48 49 50

523
ASUS43 KOAX 111810
RWRNE

WEATHER ROUNDUP FOR NEBRASKA
NATIONAL WEATHER SERVICE OMAHA NE
1200 PM CST MON DEC 11 2017

NOTES: SATELLITE DATA IS BEING USED TO AUGMENT CLOUD COVER ABOVE
       12000 FEET.
       "FAIR" INDICATES FEW OR NO CLOUDS BELOW 12,000 FEET WITH NO
       SIGNIFICANT WEATHER AND/OR OBSTRUCTIONS TO VISIBILITY.


NEZ001>004-019>022-054>056-111900-
NEBRASKA PANHANDLE

CITY           SKY/WX    TMP DP  RH WIND       PRES   REMARKS
SCOTTSBLUFF    SUNNY     50  13  22 NW28G33   30.35S
6HR MIN TEMP:  28; 6HR MAX TEMP:  50;

ALLIANCE       CLOUDY    47  13  25 NW28G37   30.28R
6HR MIN TEMP:  31; 6HR MAX TEMP:  47;

CHADRON        PTSUNNY   45  17  32 NW24G32   30.31S
6HR MIN TEMP:  39; 6HR MAX TEMP:  45;

GORDON         FAIR      45  23  42 N24G39    30.26R
6HR MIN TEMP:  39; 6HR MAX TEMP:  46;

KIMBALL        SUNNY     48  12  23 NW26G32   30.35S
SIDNEY         SUNNY     49  13  23 N33G46    30.31R
6HR MIN TEMP:  26; 6HR MAX TEMP:  49;

$$

NEZ057>060-069>072-079>082-111900-
SOUTHWEST NEBRASKA

CITY           SKY/WX    TMP DP  RH WIND       PRES   REMARKS
NORTH PLATTE   SUNNY     52  18  26 N25G43    30.21R
6HR MIN TEMP:  27; 6HR MAX TEMP:  54;

IMPERIAL       SUNNY     51  14  22 NW23G36   30.24F
6HR MIN TEMP:  36; 6HR MAX TEMP:  53;

LEXINGTON      SUNNY     54  20  26 N35G43    30.16S
MCCOOK         SUNNY     56  14  19 NW32G43   30.20F
6HR MIN TEMP:  37; 6HR MAX TEMP:  56;

OGALLALA       SUNNY     52  15  23 NW31G38   30.22S
$$

NEZ005>010-023>029-035>040-094-111900-
NORTH CENTRAL NEBRASKA

CITY           SKY/WX    TMP DP  RH WIND       PRES   REMARKS
VALENTINE      CLOUDY    42  27  55 NW30G39   30.21R
6HR MIN TEMP:  42; 6HR MAX TEMP:  48;

AINSWORTH      CLOUDY    40  29  64 N31G41    30.18S WCI  29
BROKEN BOW     SUNNY     48  24  39 N37G46    30.16R
6HR MIN TEMP:  47; 6HR MAX TEMP:  52;

O`NEILL        CLOUDY    43  31  63 NW30G40   30.12R
ORD            CLOUDY    46  26  45 NW36G54   30.12R
6HR MIN TEMP:  45; 6HR MAX TEMP:  48;

THEDFORD       SUNNY     46  24  41 NW33G45   30.19S
$$

NEZ041-046>049-061>064-073>077-083>087-111900-
SOUTH CENTRAL NEBRASKA

CITY           SKY/WX    TMP DP  RH WIND       PRES   REMARKS
GRAND ISLAND   CLOUDY    47  26  44 N30G40    30.12F
6HR MIN TEMP:  38; 6HR MAX TEMP:  50;

AURORA         CLOUDY    48  26  43 NW33      30.11R
HASTINGS       MOSUNNY   49  24  37 N32G47    30.13S
6HR MIN TEMP:  40; 6HR MAX TEMP:  51;

HEBRON         MOSUNNY   52  25  34 N31G44    30.10S
HOLDREGE       SUNNY     52  24  32 NW28G37   30.15S
KEARNEY        SUNNY     50  22  33 N30G39    30.14S
YORK           MOSUNNY   50  27  40 NW28G41   30.07S
$$

NEZ011>018-030>034-042>045-111900-
NORTHEAST NEBRASKA

CITY           SKY/WX    TMP DP  RH WIND       PRES   REMARKS
NORFOLK        CLOUDY    44  31  60 NW29G40   30.04R
6HR MIN TEMP:  44; 6HR MAX TEMP:  47;

ALBION         CLOUDY    46  30  52 NW28G46   30.08R
BLAIR          CLOUDY    47  32  57 NW29G39   29.96F
COLUMBUS       CLOUDY    47  29  49 NW32G40   30.05S
FREMONT        CLOUDY    47  31  53 NW36G43   30.02F
TEKAMAH        CLOUDY    48  31  51 NW37G49   29.98R
6HR MIN TEMP:  34; 6HR MAX TEMP:  48;

WAYNE          CLOUDY    44  30  57 NW26G38   30.02R
$$

NEZ050>053-065>068-078-088>093-111900-
SOUTHEAST NEBRASKA

CITY           SKY/WX    TMP DP  RH WIND       PRES   REMARKS
LINCOLN        PTSUNNY   51  28  41 NW28G43   30.05S
6HR MIN TEMP:  43; 6HR MAX TEMP:  51;

OMAHA EPPLEY   CLOUDY    48  31  51 NW36G44   29.96S
6HR MIN TEMP:  42; 6HR MAX TEMP:  49;

BEATRICE       SUNNY     52  28  39 NW35G44   30.05S
FALLS CITY     SUNNY     54  25  32 NW28G38   29.98S
6HR MIN TEMP:  36; 6HR MAX TEMP:  54;

NEBRASKA CITY  CLOUDY    51  31  46 NW32G44   29.99S
PLATTSMOUTH    CLOUDY    48  32  53 NW37G46   29.97S
$$

NEZ044-045-051>053-067-111900-
OMAHA AREA

CITY           SKY/WX    TMP DP  RH WIND       PRES   REMARKS
OMAHA EPPLEY   CLOUDY    48  31  51 NW36G44   29.96S
6HR MIN TEMP:  42; 6HR MAX TEMP:  49;

BLAIR          CLOUDY    47  32  57 NW29G39   29.96F
FREMONT        CLOUDY    47  31  53 NW36G43   30.02F
MILLARD        CLOUDY    49  32  52 NW20G32   29.99S
OFFUTT AFB     CLOUDY    48  30  49 NW35G49   29.97S SQUALL
PLATTSMOUTH    CLOUDY    48  32  53 NW37G46   29.97S
WAHOO          CLOUDY    49  29  45 NW26G44   30.01S
$$




USA.gov is the U.S. government's official web portal to all federal, state and local government web resources and services.